Location: Boullarre
(49.1305°N, 3.0047°E)
Time: 23:43:12
(UTC+00:00)

Okean O Rocket - Pass Details

Date: 03 February 2023
Orbit: 620 x 643 km, 98.1° (Epoch: 01 April)

Event Time Altitude Azimuth Distance (km) Brightness Sun altitude
Rises 19:14:52 0° 177° (S) 2,908 5.0 -24.2°
Reaches altitude 10° 19:17:06 10° 182° (S) 2,009 4.2 -24.6°
Maximum altitude 19:21:22 52° 260° (W) 791 2.3 -25.3°
Drops below altitude 10° 19:25:43 10° 337° (NNW) 2,040 4.5 -26.0°
Sets 19:28:00 0° 342° (NNW) 2,957 5.3 -26.4°
